Regional Weather Roundup
Issued by NWS

Home | Current Version | Previous Version | Graphics & Text | Print | Product List | Glossary Off
Versions: 1 2 3 4 5 6 7 8 9 10 11 12 13 14 15 16 17 18 19 20 21 22 23 24 25 26 27 28 29 30 31 32 33 34 35 36 37 38 39 40 41 42 43 44 45 46 47 48 49 50

000
ASUS43 KDTX 070101
RWRMI
MICHIGAN HOURLY REGIONAL WEATHER ROUNDUP
NATIONAL WEATHER SERVICE DETROIT/PONTIAC MI
800 PM EST FRI MAR 06 2015

NOTE: "FAIR" INDICATES FEW OR NO CLOUDS BELOW 12,000 FEET WITH NO
SIGNIFICANT WEATHER AND/OR OBSTRUCTION TO VISIBILITY.

MIZ047>049-052>055-059>063-066>070-074>076-081>083-070200-
SOUTHEAST LOWER MICHIGAN

CITY           SKY/WX    TMP DP  RH WIND       PRES   REMARKS
ADRIAN         PTCLDY    19  10  68 SW16      30.23F WCI   4
ALMA           CLOUDY    22   7  53 SW12      30.14R WCI  10
ANN ARBOR      MOCLDY    20  10  65 SW9       30.22S WCI   9
BAD AXE        CLOUDY    22   6  50 SW12      30.10F WCI  10
CARO           MOCLDY    22   5  47 S14       30.12S WCI   9
DETROIT CITY   CLOUDY    24   9  52 SW16G26   30.22F WCI  11
DETROIT        CLOUDY    22  10  60 S13       30.24F WCI  10
FLINT          CLOUDY    22   7  52 S13       30.16F WCI  10
GROSSE ILE     CLOUDY    21  12  68 S13       30.23F WCI   9
HILLSDALE      CLEAR     20   9  63 S10       30.18F WCI   8
HOWELL         PTCLDY    20   8  60 S13G22    30.16F WCI   7

CITY           SKY/WX    TMP DP  RH WIND       PRES   REMARKS
JACKSON        CLEAR     20   8  60 SW12      30.19R WCI   8
LAMBERTVILLE   CLOUDY    23  12  63 SW7       30.26S WCI  15
LANSING        CLOUDY    22   7  52 SW17      30.17S WCI   8
LAPEER         CLOUDY    20   7  56 SW14      30.15F WCI   6
MASON          PTCLDY    20   7  55 SW6       30.17F WCI  13
MONROE         CLOUDY    23  12  63 SW9       30.24S WCI  13
MT. CLEMENS    CLOUDY    22  10  60 SW12G20   30.20S WCI  10
PONTIAC        CLOUDY    19   8  62 S14       30.17S WCI   6
PORT HOPE        N/A     23   2  40 SW9       30.08F WCI  13
PORT HURON     CLOUDY    19  10  68 S14G21    30.20S WCI   6
TRI CITIES     CLOUDY    23   6  48 SW20      30.13S WCI   8
TROY           CLOUDY    23   9  54 SW13G23   30.23S WCI  12
SAGINAW HB     MOCLDY    23   9  54 SW17      30.13S WCI   9
$$
MIZ043>046-050>051-056>058-064>065-071>073-077>080-070200-
SOUTHWEST LOWER MICHIGAN

CITY           SKY/WX    TMP DP  RH WIND       PRES   REMARKS
BATTLE CREEK   PTCLDY    21   8  57 SW13      30.19R WCI   9
BENTON HARBOR  PTCLDY    22  10  60 S10       30.20S WCI  11
BIG RAPIDS     CLOUDY    22  12  63 SW9G22    30.07S WCI  12
COLDWATER      CLEAR     21   8  59 S7        30.21R WCI  12
FREMONT        CLOUDY    22  13  67 S14       30.11F WCI   9
HOLLAND        CLOUDY    25  11  55 SW20G26   30.17S WCI  11
GRAND RAPIDS   MOCLDY    21   6  52 S16       30.15F WCI   7
IONIA          CLOUDY    23   8  54 SW14      30.15S WCI  10
KALAMAZOO      CLEAR     21   9  59 SW14      30.20R WCI   8
LUDINGTON      CLOUDY    31  22  68 SW21G30   30.08S WCI  18
MARSHALL       CLEAR     20   7  56 SW7       30.19R WCI  11
MOUNT PLEASANT CLOUDY    23   7  49 S12G17    30.10S WCI  12
MUSKEGON       CLOUDY    23  15  71 S14       30.15R WCI  11
SOUTH HAVEN    CLOUDY    24  10  53 S10       30.19S WCI  14
$$
MIZ016>042-070200-
NORTHERN LOWER MICHIGAN

CITY           SKY/WX    TMP DP  RH WIND       PRES   REMARKS
ALPENA         CLOUDY    25   7  46 SW14      30.00S WCI  13
BEAVER ISLAND  PTCLDY    26  21  81 SW16G28   29.98S WCI  13
BELLAIRE       MOCLDY    25  15  65 SW7G16    30.03S WCI  17
CADILLAC       CLOUDY    19  12  74 SW20      30.01S WCI   3
CHARLEVOIX     CLOUDY    24  16  72 SW9G17    30.04R WCI  14
FRANKFORT      MOCLDY    28  21  75 SW18G29   30.04R WCI  15
GAYLORD        MOCLDY    21  11  65 SW17G26   29.97R WCI   7
GRAYLING       CLOUDY    22   9  58 SW12G22   30.01S WCI  10
HARBOR SPRINGS CLOUDY    24  16  72 SW16G22   30.00R WCI  11
HOUGHTON LAKE  CLOUDY    21   6  52 SW13G24   30.04R WCI   9
MANISTEE       CLOUDY    27  18  69 SW9       30.07R WCI  17
OSCODA         CLOUDY    21   7  54 SW16G23   30.05S WCI   7
PELLSTON       CLOUDY    25  15  66 SW14G24   30.00R WCI  13
ROGERS CITY    CLOUDY    27  14  58 SW14G21   29.99R WCI  16
TRAVERSE CITY  PTCLDY    25  15  66 SW12G21   30.01R WCI  14
$$
MIZ007>008-015-070200-
EASTERN UPPER MICHIGAN

CITY           SKY/WX    TMP DP  RH WIND       PRES   REMARKS
KINROSS        CLOUDY    25  21  86 SW9G17    29.95S WCI  15
MACKINAC ISLAN CLOUDY    25  19  79 SW16G28   29.97S WCI  12
NEWBERRY       PTCLDY    21  11  66 W10       29.94R WCI  10
S. S. MARIE    CLOUDY    25  17  72 SW14G25   29.94S WCI  13
MUNISING         N/A     21  10  62 S7        29.96R WCI  12
$$
MIZ004>006-011>014-085-070200-
CENTRAL UPPER MICHIGAN

CITY           SKY/WX    TMP DP  RH WIND       PRES   REMARKS
MANISTIQUE     CLEAR     24  15  69 SW8       29.95S WCI  15
ESCANABA       CLEAR     21  14  73 SW9       29.97R WCI  11
MENOMINEE      CLEAR     27  10  50 SW6       30.00R WCI  20
SAWYER-GWINN   CLEAR     23  12  63 CALM      29.92R
$$
MIZ001>003-009>011-084-070200-
WESTERN UPPER MICHIGAN

CITY           SKY/WX    TMP DP  RH WIND       PRES   REMARKS
IRON MOUNTAIN  CLEAR     27   9  46 W6        29.94R WCI  20
HOUGHTON       FAIR      25  15  66 W18       29.90R WCI  11
COPPER HARBOR    N/A     28  16  60 NW9G18    29.89R WCI  19
IRONWOOD       CLEAR     25  10  54 W6        29.94R WCI  18
$$

ABBREVIATIONS USED IN REMARKS
   TC - TEMPERATURE IN CELSIUS
  WCI - WIND CHILL INDEX
   HX - HEAT INDEX
  VSB - VISIBILITY




USA.gov is the U.S. government's official web portal to all federal, state and local government web resources and services.